{"data":{"norad_id":60403,"epoch":"2026-05-25T04:36:34.032384Z","epoch_age_seconds":72595,"freshness":"FRESH","line1":"1 60403U 24141F   26145.19206056  .00000252  00000+0  69333-5 0  9999","line2":"2 60403  53.1583  69.4874 0000824  87.9678 272.1434 15.69704666103701","mean_motion":15.69704666,"eccentricity":8.24e-5,"inclination_deg":53.1583,"raan_deg":69.4874,"arg_perigee_deg":87.9678,"mean_anomaly_deg":272.1434,"bstar":6.9333e-6,"rev_number":10370,"period_min":91.737001946327,"perigee_km":359.18681309848,"apogee_km":360.29721556004,"semimajor_km":6737.8790143293,"source":"CELESTRAK","updated_at":"2026-05-25T13:38:19.267284Z"}}